Torna al catalogo

DELTA 1 DEB

AttivoSSO
NORAD 37672·DEBRIS·🇺🇸 United States

Lanciato Mar 5, 1978 da Vandenberg Space Force Base

Loading…

Prossimi Passaggi (prossime 24 ore)

TLE

AggiornatoSource: Space-Track

Epoca: Sep 11, 2026, 20:19 UTC

1 37672U 78026KK  26254.84686603  .00000172  00000-0  11593-3 0  9990
2 37672  99.0270 287.4305 0023751  59.2811 301.0697 14.13290769249730

Traccia DELTA 1 DEB in tempo reale con AllMySat

Download on the App Store